{"data":{"norad_id":48054,"intl_designator":"2021-025N","name":"ONEWEB-0158","alt_names":[],"object_type":"PAYLOAD","status":"ACTIVE","operator":null,"country":"UK","launch_date":"2021-03-25","launch_site_code":"VOSTO","launch_vehicle":null,"mission":null,"orbit_class":"UNKNOWN","rcs_meters":null,"size_class":null,"mass_kg":null,"dimensions":null,"purposes":["comms"],"wikipedia_slug":null,"has_3d_model":false,"image_url":null,"decayed_at":null,"tle_current":{"epoch":"2026-09-19T19:36:34.632000Z","epoch_age_seconds":77353,"freshness":"FRESH","line1":"1 48054U 21025N   26262.81706750 -.00000169  00000+0 -49792-3 0  9994","line2":"2 48054  87.8924 301.3949 0002090  87.3214 272.8155 13.13470249266059","mean_motion":13.13470249,"eccentricity":0.000209,"inclination_deg":87.8924,"raan_deg":301.3949,"arg_perigee_deg":87.3214,"mean_anomaly_deg":272.8155,"bstar":-0.00049792,"rev_number":26605,"period_min":109.63324072976,"perigee_km":1208.178569519,"apogee_km":1211.3503123213,"semimajor_km":7587.9014409202,"source":"CELESTRAK","updated_at":"2026-09-20T09:00:44.586369Z"}}}